Regional Weather Roundup
Issued by NWS

Home | Current Version | Previous Version | Text Only | Print | Product List | Glossary Off
Versions: 1 2 3 4 5 6 7 8 9 10 11 12 13 14 15 16 17 18 19 20 21 22 23 24 25 26 27 28

000
ASUS45 KPSR 301010
RWRAZ

ARIZONA HOURLY REGIONAL WEATHER ROUNDUP
NATIONAL WEATHER SERVICE PHOENIX AZ
300 AM MST FRI SEP 30 2016

NOTE: FAIR INDICATES FEW OR NO CLOUDS BELOW 12,000 FEET WITH NO
SIGNIFICANT WEATHER AND/OR OBSTRUCTIONS TO VISIBILITY.

AZZ001>003-036-301100-
NORTHWEST ARIZONA

CITY           SKY/WX    TMP DP  RH WIND       PRES   REMARKS
BULLHEAD CITY  CLEAR     77  48  36 CALM      30.01S
KINGMAN        PTCLDY    68  52  56 SE12      30.17F
$$

AZZ004>008-015-016-018-301100-
NORTH CENTRAL ARIZONA

CITY           SKY/WX    TMP DP  RH WIND       PRES   REMARKS
GRAND CANYON   PTCLDY    48  46  93 CALM      30.36F
PRESCOTT       CLEAR     52  50  93 S3        30.28F
FLAGSTAFF      FOG       48  48 100 CALM      30.39F VSB 1/4
PAYSON         CLEAR     59  52  77 E5        30.32S
PAGE           CLOUDY    62  55  77 S6        30.27F
$$

AZZ009>014-017-301100-
NORTHEAST ARIZONA

CITY           SKY/WX    TMP DP  RH WIND       PRES   REMARKS
WINSLOW        CLEAR     49  48  97 SW3       30.30F
SAINT JOHNS    FOG       53  52  96 SW5       30.32S VSB 1/4
WINDOW ROCK    FOG       45  43  93 CALM      30.39F VSB 1/2
SHOW LOW       FOG       48  48 100 S5        30.37F VSB<1/4
$$

AZZ023-301100-
GREATER PHOENIX AREA

CITY           SKY/WX    TMP DP  RH WIND       PRES   REMARKS
PHOENIX        CLEAR     78  60  53 E9        30.02F
BUCKEYE        CLEAR     81  57  44 NE8       30.02F
LUKE AFB       CLEAR     74  58  57 N3        30.02F
DEER VALLEY    CLEAR     75  54  47 CALM      30.04F
SCOTTSDALE     CLEAR     73  55  53 S5        30.05F
MESA-GATEWAY   CLEAR     72  59  64 CALM      30.05F
$$

AZZ027-028-301100-
SOUTHWEST MARICOPA COUNTY AND PINAL COUNTY

CITY           SKY/WX    TMP DP  RH WIND       PRES   REMARKS
CASA GRANDE    CLEAR     72  59  64 E3        30.06F
GILA BEND      FAIR      75  53  46 SE2       29.99F
$$

AZZ503-504-507>509-301100-
SOUTHEAST ARIZONA

CITY           SKY/WX    TMP DP  RH WIND       PRES   REMARKS
TUCSON         CLEAR     73  59  61 SE15      30.12F
DAVIS-MONTHAN  CLEAR     69  60  72 E12       30.12F
NOGALES        CLEAR     65  58  78 E6        30.19F
SIERRA VISTA   CLEAR     59  58  94 E3        30.27F
DOUGLAS        MOCLDY    63  61  93 CALM      30.23F
SAFFORD        PTCLDY    65  60  84 SE10      30.21S
$$

AZZ020-021-025-026-031-301100-
SOUTHWEST ARIZONA

CITY           SKY/WX    TMP DP  RH WIND       PRES   REMARKS
YUMA           PTCLDY    82  56  40 CALM      29.95F
$$

CAZ031-033-041-043-047-048-061-301100-
SOUTHERN CALIFORNIA

CITY           SKY/WX    TMP DP  RH WIND       PRES   REMARKS
DOWNTOWN L.A.  CLEAR     68  62  81 CALM      30.02S
L.A. AIRPORT   CLEAR     68  62  81 CALM      30.02F
SAN DIEGO      PTCLDY    72  66  81 NW5       30.02F
BURBANK        CLEAR     71  50  47 NW6       30.03F
ONTARIO        CLEAR     72  52  49 CALM      30.04F
RIVERSIDE      CLEAR     71  54  54 CALM      30.04F
PALM SPRINGS   CLEAR     82  51  34 NW7       29.99S
EL CENTRO NAS  CLEAR     76  53  44 W8        29.96F
IMPERIAL       CLEAR     77  57  50 W7        29.93F
BLYTHE         CLEAR     74  45  35 NW6       29.97F
NEEDLES        CLEAR     80  49  33 CALM      30.01S
$$

NVZ020-UTZ003-301100-
SOUTHERN NEVADA-UTAH

CITY           SKY/WX    TMP DP  RH WIND       PRES   REMARKS
LAS VEGAS      PTCLDY    74  42  31 SW3       30.07S
SALT LAKE CITY PTCLDY    65  50  58 SE10      30.17F
$$

NMZ009-TXZ055-301100-
NEW MEXICO-WEST TEXAS

CITY           SKY/WX    TMP DP  RH WIND       PRES   REMARKS
ALBUQUERQUE    MOCLDY    59  56  89 E5        30.34F
EL PASO        CLOUDY    69  49  48 N18       30.25S
$$


........................KEY........................
SKY/WX - SKY CONDITION/WEATHER
TMP    - TEMPERATURE IN FAHRENHEIT
DP     - DEW POINT IN FAHRENHEIT
RH     - RELATIVE HUMIDITY IN PERCENT
WIND   - DIRECTION AND SPEED IN MILES PER HOUR (MPH)
VRB    - VARIABLE WIND DIRECTION
PRES   - MEAN SEA LEVEL PRESSURE IN INCHES OF MERCURY
         F - FALLING PRESSURE   R - RISING PRESSURE
         S - STEADY PRESSURE
VSB    - VISIBILITY IN MILES
HX     - HEAT INDEX IN FAHRENHEIT
WCI    - WIND CHILL INDEX IN FAHRENHEIT
TC     - TEMPERATURE IN CELSIUS WHICH IS ALSO KNOWN AS
         TEMPERATURE IN CENTIGRADE
AFB    - AIR FORCE BASE
         LUKE AFB IS LUKE AIR FORCE BASE
         DAVIS-MONTHAN IS DAVIS-MONTHAN AIR FORCE BASE
NAS    - NAVAL AIR STATION
         EL CENTRO NAS IS EL CENTRO NAVAL AIR STATION
N/A    - NOT AVAILABLE





USA.gov is the U.S. government's official web portal to all federal, state and local government web resources and services.